Date,TemperatureHighF,TemperatureAvgF,TemperatureLowF,DewpointHighF,DewpointAvgF,DewpointLowF,HumidityHigh,HumidityAvg,HumidityLow,PressureMaxIn,PressureMinIn,WindSpeedMaxMPH,WindSpeedAvgMPH,GustSpeedMaxMPH,PrecipitationSumIn
2013-1-1,36,31,20,23,16,4,62,53,43,29.93,29.74,4,1,0,0.00
2013-1-2,30,22,13,12,6,-4,67,52,34,30.10,29.91,3,0,0,0.00
2013-1-3,27,18,4,11,0,-9,58,45,34,30.14,29.98,8,0,0,0.00
2013-1-4,37,30,24,20,17,11,70,56,46,29.98,29.82,6,1,0,0.00
2013-1-5,40,32,23,22,17,14,70,53,39,30.23,29.87,7,1,0,0.00
2013-1-6,43,33,23,26,22,15,76,65,47,30.16,29.90,3,0,0,0.00
2013-1-7,39,32,22,26,19,13,78,60,39,30.36,29.96,3,0,0,0.00
2013-1-8,47,34,21,26,22,13,82,62,39,30.35,30.25,5,1,0,0.00
2013-1-9,42,34,24,33,26,19,85,72,55,30.35,30.03,3,0,0,0.00
2013-1-10,44,39,32,29,21,17,68,49,34,30.50,30.09,6,2,0,0.00
2013-1-11,36,31,25,31,24,19,88,75,60,30.49,30.13,1,0,0,0.00
2013-1-12,42,38,34,40,36,31,92,92,88,30.15,30.07,1,0,0,0.00
2013-1-13,46,43,39,44,41,37,92,92,92,30.11,29.96,3,0,0,0.00
2013-1-14,55,46,36,53,38,23,92,76,43,30.24,29.86,5,1,0,0.00
2013-1-15,38,35,31,26,22,21,70,60,51,30.30,30.18,1,0,0,0.00
2013-1-16,33,31,29,30,27,21,92,84,61,30.21,29.78,0,0,0,0.00
2013-1-17,41,33,27,32,25,9,92,73,47,30.07,29.82,3,0,0,0.00
2013-1-18,27,23,19,10,2,-6,50,40,26,30.43,30.01,5,2,0,0.00
2013-1-19,44,36,21,29,19,5,63,51,43,30.35,29.84,6,2,0,0.00
2013-1-20,50,40,27,28,20,5,70,47,18,29.93,29.57,6,2,0,0.00
2013-1-21,28,24,19,19,11,5,82,58,39,30.06,29.75,2,0,0,0.00
2013-1-22,22,18,12,17,-1,-12,83,45,23,30.09,29.73,6,2,0,0.00
2013-1-23,16,10,6,-6,-9,-14,54,41,25,30.15,30.07,4,1,0,0.00
2013-1-24,18,11,3,-1,-11,-16,56,38,20,30.27,30.09,5,2,0,0.00
2013-1-25,22,16,9,10,-4,-11,72,43,24,30.33,30.02,3,1,0,0.00
2013-1-26,23,16,8,9,2,-3,76,55,33,30.27,29.98,4,1,0,0.00
2013-1-27,31,20,9,5,-2,-9,72,41,18,30.45,30.27,4,1,0,0.00
2013-1-28,31,24,15,29,15,-1,92,70,37,30.44,29.95,2,0,0,0.00
2013-1-29,34,31,27,30,28,25,92,88,82,30.13,29.95,1,0,0,0.00
2013-1-30,55,44,33,53,35,-100,92,87,88,30.09,29.36,9,2,0,0.00
2013-1-31,55,41,30,53,20,9,92,46,27,29.62,29.03,9,6,0,0.00
2013-2-1,30,26,20,15,5,-1,54,41,26,30.10,29.61,7,2,0,0.00
2013-2-2,29,23,14,14,5,-2,71,47,26,30.23,30.02,5,2,0,0.00
2013-2-3,29,23,17,15,13,10,80,64,45,30.03,29.72,2,0,0,0.00
2013-2-4,28,24,20,12,6,1,69,48,33,29.92,29.72,5,1,0,0.00
2013-2-5,28,24,21,20,12,3,82,61,42,29.97,29.88,1,0,0,0.00
2013-2-6,38,30,24,23,15,-7,84,58,23,30.29,29.87,4,1,0,0.00
2013-2-7,30,24,18,10,2,-2,55,39,24,30.48,30.29,3,0,0,0.00
2013-2-8,30,26,21,27,19,6,91,75,42,30.39,29.58,11,4,0,0.00
2013-2-9,25,20,16,21,15,7,92,80,62,30.24,29.62,9,5,0,0.00
2013-2-10,34,20,10,21,11,3,74,67,53,30.42,30.24,2,0,0,0.00
2013-2-11,42,32,20,40,29,12,92,85,71,30.30,29.60,3,0,0,0.00
2013-2-12,44,38,34,38,27,-100,92,70,42,29.88,29.62,5,1,0,0.00
2013-2-13,42,36,29,23,19,17,64,51,37,29.87,29.66,3,0,0,0.00
2013-2-14,43,35,27,26,22,17,84,61,36,29.94,29.66,2,0,0,0.00
2013-2-15,48,37,28,32,26,-100,88,70,50,29.95,29.86,6,1,0,0.00
2013-2-16,38,33,29,31,20,-100,86,64,38,29.92,29.73,6,1,0,0.00
2013-2-17,27,21,15,4,-12,-100,46,32,26,29.80,29.51,11,5,0,0.00
2013-2-18,31,20,13,0,-3,-8,52,37,18,30.13,29.80,7,3,0,0.00
2013-2-19,44,34,21,38,24,4,92,67,48,30.15,29.56,6,1,0,0.00
2013-2-20,38,30,23,36,13,3,92,51,33,29.83,29.56,5,2,0,0.00
2013-2-21,30,24,21,11,9,6,60,51,41,30.23,29.83,6,2,0,0.00
2013-2-22,37,29,18,23,16,9,73,58,44,30.37,30.23,4,1,0,0.00
2013-2-23,36,33,31,34,28,-100,92,83,71,30.24,29.81,3,0,0,0.00
2013-2-24,39,35,32,35,31,24,92,85,68,29.87,29.67,6,2,0,0.00
2013-2-25,43,35,28,26,23,20,76,62,47,30.20,29.87,3,1,0,0.00
2013-2-26,41,35,29,27,24,20,79,65,49,30.28,30.03,4,1,0,0.00
2013-2-27,42,38,33,40,35,27,92,90,72,30.04,29.53,6,2,0,0.00
2013-2-28,45,38,33,36,32,21,92,82,53,29.58,29.49,2,0,0,0.00
2013-3-1,44,38,34,32,27,23,83,66,44,29.68,29.51,4,1,0,0.00
2013-3-2,38,34,30,26,22,21,73,63,52,29.69,29.61,4,1,0,0.00
2013-3-3,35,30,27,23,19,15,70,64,47,29.65,29.58,4,2,0,0.00
2013-3-4,37,31,26,19,17,15,67,58,44,29.78,29.64,7,3,0,0.00
2013-3-5,46,37,29,25,21,17,65,54,40,30.00,29.78,6,2,0,0.00
2013-3-6,41,37,34,32,28,24,78,69,55,29.98,29.91,9,4,0,0.00
2013-3-7,35,33,31,30,27,25,88,79,67,30.01,29.92,9,5,0,0.00
2013-3-8,41,35,31,31,27,20,89,75,45,30.12,29.91,7,2,0,0.00
2013-3-9,55,42,27,22,16,3,69,40,12,30.29,30.12,5,2,0,0.00
2013-3-10,50,37,24,31,25,19,82,64,39,30.36,30.25,4,1,0,0.00
2013-3-11,51,43,36,40,35,29,85,74,57,30.28,30.07,5,2,0,0.00
2013-3-12,53,49,40,53,36,-100,100,82,75,30.08,29.65,8,2,0,0.00
2013-3-13,49,40,30,35,24,17,82,57,30,29.80,29.71,3,1,0,0.00
2013-3-14,37,30,27,25,15,5,79,54,34,29.84,29.76,6,2,0,0.00
2013-3-15,41,32,24,27,14,5,72,49,26,29.88,29.65,6,2,0,0.00
2013-3-16,37,33,28,24,14,5,66,47,28,29.83,29.68,3,0,0,0.00
2013-3-17,36,30,24,15,6,-3,53,36,19,30.27,29.83,6,2,0,0.00
2013-3-18,36,28,19,24,3,-6,85,38,18,30.40,30.10,4,1,0,0.00
2013-3-19,35,31,28,33,28,24,92,88,85,30.11,29.62,4,2,0,0.00
2013-3-20,40,33,26,29,16,9,87,53,29,29.78,29.70,6,2,0,0.00
2013-3-21,36,31,27,21,14,6,68,52,31,29.78,29.57,3,1,0,0.00
2013-3-22,39,32,23,21,13,6,60,47,35,29.77,29.62,5,1,0,0.00
2013-3-23,43,36,30,22,17,10,65,47,27,29.82,29.70,6,2,0,0.00
2013-3-24,45,37,30,21,18,15,61,47,33,29.85,29.68,5,1,0,0.00
2013-3-25,44,38,31,25,22,20,64,53,39,29.72,29.41,6,3,0,0.00
2013-3-26,48,40,36,26,21,14,66,48,27,29.78,29.51,4,1,0,0.00
2013-3-27,53,43,34,25,19,11,57,40,20,29.86,29.75,5,2,0,0.00
2013-3-28,50,43,37,32,27,24,69,55,39,30.01,29.85,4,1,0,0.00
2013-3-29,55,46,35,30,26,22,70,48,27,30.05,29.96,3,1,0,0.00
2013-3-30,57,46,36,27,20,7,66,39,16,30.08,29.98,5,1,0,0.00
2013-3-31,55,44,29,38,23,-100,80,49,24,30.08,29.64,9,2,0,0.00
2013-4-1,61,45,34,44,34,11,89,67,37,29.81,29.51,8,2,0,0.00
2013-4-2,41,34,27,17,8,-1,64,36,19,29.96,29.80,7,2,0,0.00
2013-4-3,43,35,28,13,8,2,49,33,18,30.20,29.96,7,2,0,0.00
2013-4-4,53,39,25,28,15,6,65,40,17,30.31,30.03,6,2,0,0.00
2013-4-5,61,45,38,29,20,8,69,41,14,30.03,29.64,5,2,0,0.00
2013-4-6,49,39,31,21,5,-7,54,28,10,30.27,29.89,8,2,0,0.00
2013-4-7,53,43,30,40,27,11,79,56,38,30.27,29.96,10,4,0,0.00
2013-4-8,68,54,39,42,34,25,90,54,20,30.03,29.92,2,0,0,0.00
2013-4-9,74,61,47,48,40,34,86,51,26,29.98,29.83,6,1,0,0.00
2013-4-10,66,56,48,48,45,37,88,69,49,29.92,29.78,4,0,0,0.00
2013-4-11,57,50,41,47,37,21,89,63,31,30.07,29.77,5,2,0,0.00
2013-4-12,42,39,36,35,33,29,92,80,61,30.07,29.73,5,2,0,0.00
2013-4-13,53,44,35,35,32,29,92,66,39,29.89,29.72,5,1,0,0.00
2013-4-14,51,44,38,34,28,20,80,55,32,30.19,29.88,4,1,0,0.00
2013-4-15,58,45,33,32,25,21,70,47,29,30.35,30.18,4,1,0,0.00
2013-4-16,63,50,35,48,40,29,84,68,48,30.35,30.06,8,3,0,0.00
2013-4-17,68,58,50,50,32,21,81,43,19,30.25,30.05,3,1,0,0.00
2013-4-18,61,51,39,44,32,23,82,52,25,30.34,30.09,7,2,0,0.00
2013-4-19,70,60,52,58,51,42,92,73,52,30.09,29.61,10,4,0,0.00
2013-4-20,62,52,41,49,31,12,86,50,20,30.23,29.59,5,2,0,0.00
2013-4-21,53,42,32,28,15,10,57,35,19,30.60,30.22,5,2,0,0.00
2013-4-22,57,45,34,29,24,14,75,46,21,30.66,30.49,6,2,0,0.00
2013-4-23,44,40,37,35,32,26,79,71,58,30.50,30.07,6,3,0,0.00
2013-4-24,71,53,41,45,39,35,81,63,27,30.07,29.78,6,2,0,0.00
2013-4-25,62,53,44,48,29,13,86,46,15,30.22,29.81,4,1,0,0.00
2013-4-26,66,51,34,32,24,17,73,38,17,30.36,30.22,2,0,0,0.00
2013-4-27,67,53,38,38,28,22,62,41,19,30.37,30.23,4,1,0,0.00
2013-4-28,68,54,38,41,31,-100,84,47,22,30.28,30.17,6,2,0,0.00
2013-4-29,61,54,47,43,34,21,76,49,24,30.21,30.17,5,1,0,0.00
2013-4-30,69,55,42,40,28,14,79,42,13,30.30,30.19,3,1,0,0.00
2013-5-1,73,55,37,41,31,20,74,44,20,30.45,30.30,3,1,0,0.00
2013-5-2,78,60,41,41,36,28,83,47,18,30.42,30.24,4,1,0,0.00
2013-5-3,68,56,45,41,34,23,69,45,27,30.45,30.29,4,1,0,0.00
2013-5-4,72,56,41,44,37,24,85,55,17,30.34,30.17,4,1,0,0.00
2013-5-5,69,51,35,40,34,29,85,57,22,30.27,30.15,4,1,0,0.00
2013-5-6,71,56,42,47,42,35,82,62,34,30.24,30.10,2,0,0,0.00
2013-5-7,76,61,44,55,47,39,87,63,33,30.14,30.04,3,0,0,0.00
2013-5-8,71,61,55,58,54,11,89,79,44,30.11,29.98,6,1,0,0.00
2013-5-9,64,58,53,58,46,-3,92,69,8,29.99,29.83,1,0,0,0.00
2013-5-10,79,64,51,63,43,-100,91,52,21,29.93,29.86,2,0,0,0.00
2013-5-11,66,62,58,59,54,40,90,77,42,29.87,29.65,4,1,0,0.00
2013-5-12,72,59,50,63,45,-100,92,67,29,29.81,29.56,2,0,0,0.00
2013-5-13,57,48,41,31,27,22,65,45,26,30.03,29.81,2,0,0,0.00
2013-5-14,58,48,39,32,26,16,68,45,19,30.04,29.96,2,0,0,0.00
2013-5-15,62,50,34,50,39,29,86,68,40,30.03,29.65,5,1,0,0.00
2013-5-16,82,60,48,54,21,-100,90,49,13,29.76,29.62,1,0,0,0.00
2013-5-17,71,59,48,41,32,-100,72,43,21,30.15,29.76,3,0,0,0.00
2013-5-18,70,57,43,46,41,34,85,57,27,30.27,30.16,2,0,0,0.00
2013-5-19,59,54,49,53,49,35,90,81,52,30.31,30.16,2,0,0,0.00
2013-5-20,83,68,55,73,54,6,92,65,12,30.16,29.88,1,0,0,0.00
2013-5-21,88,74,60,67,62,42,90,68,34,29.92,29.75,3,0,0,0.00
2013-5-22,77,64,55,65,56,19,90,75,14,29.92,29.79,3,1,0,0.00
2013-5-23,70,67,64,64,53,24,90,64,21,29.86,29.73,5,1,0,0.00
2013-5-24,66,58,46,64,54,24,92,85,42,29.83,29.61,4,1,0,0.00
2013-5-25,47,45,43,45,38,13,100,79,29,29.84,29.77,3,1,0,0.00
2013-5-26,59,50,43,42,32,7,92,51,21,30.11,29.79,5,2,0,0.00
2013-5-27,75,59,45,43,35,26,75,45,18,30.15,30.05,3,0,0,0.00
2013-5-28,72,58,45,54,44,35,85,64,28,30.18,30.11,2,0,0,0.00
2013-5-29,80,66,57,72,56,-100,100,77,45,30.11,29.93,4,0,0,0.00
2013-5-30,91,76,61,82,62,46,100,65,37,30.06,29.97,1,0,0,0.00
2013-5-31,94,79,66,72,62,49,92,58,23,30.06,29.92,2,0,0,0.00
2013-6-1,91,77,63,67,63,58,87,64,37,29.95,29.84,3,1,0,0.00
2013-6-2,85,75,66,68,62,-100,86,69,53,29.85,29.70,5,1,0,0.00
2013-6-3,79,70,63,71,58,42,100,68,41,29.83,29.73,1,0,0,0.00
2013-6-4,72,62,52,47,41,36,64,47,31,30.05,29.83,3,1,0,0.00
2013-6-5,74,63,48,49,44,40,83,53,31,30.16,30.05,1,0,0,0.00
2013-6-6,70,60,49,55,50,44,90,71,46,30.14,30.02,3,1,0,0.00
2013-6-7,59,57,54,59,54,32,100,90,40,30.03,29.71,3,0,0,0.00
2013-6-8,77,64,52,62,55,39,92,75,34,29.98,29.58,3,1,0,0.00
2013-6-9,79,69,57,58,54,47,84,62,34,30.13,29.98,1,0,0,0.00
2013-6-10,71,63,57,61,56,45,91,79,51,30.14,29.89,3,0,0,0.00
2013-6-11,70,63,58,70,59,22,100,87,17,29.89,29.52,2,0,0,0.00
2013-6-12,72,64,58,62,52,47,100,67,43,29.80,29.58,4,1,0,0.00
2013-6-13,58,55,52,55,49,21,92,83,24,29.79,29.55,5,1,0,0.00
2013-6-14,74,60,50,61,51,45,100,75,38,29.77,29.55,5,1,0,0.00
2013-6-15,79,68,57,54,48,38,82,53,25,29.92,29.77,1,0,0,0.00
2013-6-16,76,66,52,63,54,47,87,65,43,29.93,29.68,2,0,0,0.00
2013-6-17,86,72,60,62,57,-100,87,62,34,29.87,29.75,4,0,0,0.00
2013-6-18,81,68,59,66,56,18,92,70,19,29.87,29.77,3,0,0,0.00
2013-6-19,76,68,54,52,43,13,71,42,19,30.11,29.85,2,0,0,0.00
2013-6-20,79,62,49,54,47,43,87,61,33,30.22,30.11,1,0,0,0.00
2013-6-22,85,79,70,60,56,51,61,46,32,30.19,30.08,2,1,0,0.00
2013-6-23,91,76,62,67,62,53,80,62,35,30.13,29.98,2,0,0,0.00
2013-6-24,92,83,70,77,67,61,92,60,42,30.01,29.86,1,0,0,0.00
2013-6-25,91,82,66,72,67,62,92,63,42,29.91,29.71,2,0,0,0.00
2013-6-26,85,77,70,71,67,-100,100,75,56,29.78,29.70,1,0,0,0.00
2013-6-27,80,72,67,71,67,64,92,85,67,29.78,29.61,2,0,0,0.00
2013-6-28,74,72,68,72,69,66,100,91,79,29.62,29.42,3,1,0,0.00
2013-6-29,83,79,72,72,58,-100,100,62,57,29.63,29.45,4,2,0,0.00
2013-6-30,85,77,71,74,66,-100,100,77,57,29.88,29.68,4,1,0,0.00
2013-7-1,72,69,72,72,64,-100,100,92,92,29.92,29.88,2,0,0,0.00
2013-7-2,83,79,74,72,47,-100,92,64,65,30.13,30.04,3,1,0,0.00
2013-7-3,87,78,72,73,67,-100,100,77,57,30.18,30.11,2,0,0,0.00
2013-7-4,91,83,73,77,72,67,100,70,49,30.18,30.07,1,0,0,0.00
2013-7-5,79,76,74,79,19,-100,100,60,72,30.14,30.11,0,0,0,0.00